Погода в Алексеевском

Россия / Республика Татарстан     55°18′25″N   50°07′08″E
темп.,
°C
ветер,
м/с
пор.,
м/с
влажн.,
%
обл.,
%
осадки,
мм/ч
давл.,
гПа
погр.,
м
10 мая, пн
пн1000:00+16ююв597496 0.1 1014164
03:00+14юв5108197 1.3 1015185
06:00+15ююв31071100 0.4 1016286
09:00+20юв4755100 0.4 1018561
12:00+23ююв4644100 0.0 10191392
15:00+24юв443965 0.1 10192138
18:00+21в225389 0.0 102022
21:00+17в345491 0.0 102249
11 мая, вт
вт1100:00+15в456399 0.0 102272
03:00+14в3365100 0.0 102338
06:00+15в3669100 0.0 1024135
09:00+20в4550100 0.0 1025411
12:00+23в3441100 0.0 10261094
15:00+23всв4441100 0.0 10261768
18:00+20всв3554100 0.0 102680
21:00+17в3358100 0.0 102725
12 мая, ср
ср1200:00+16всв226557 0.0 102723
03:00+15вюв22697 0.0 102711
06:00+17вюв226662 0.0 102891
09:00+21вюв23525 0.0 1028707
12:00+24юв45377 0.0 10282139
15:00+24юв453811 0.0 10272305
18:00+22вюв225374 0.0 102721
21:00+18ююв3464100 0.0 102750
13 мая, чт
чт1300:00+16юв3356100 0.0 102725
03:00+15вюв335895 0.0 102728
06:00+16вюв37645 0.0 1028184
09:00+21юв684538 0.0 1028894
12:00+23юв564096 0.0 10261193
15:00+24юв5639100 0.0 10251360
18:00+21юв355666 0.0 1025113
21:00+18юв485936 0.0 1025112
14 мая, пт
пт1400:00+16ююв485972 0.0 1025114
03:00+15ююв496188 0.0 1025120
06:00+17ююв496399 0.0 1025206
09:00+21ююв4649100 0.0 1024374
12:00+24ююв574395 0.0 1024691
15:00+25ююв5842100 0.0 10231177
18:00+23ююв48565 0.0 1022177
21:00+19ю495693 0.0 1022122